Location: Azul
(36.7830°S, 59.8500°W)
Time: 17:52:44
(UTC-03:00)

BUGSAT 1 - Pass Details

Date: 29 October 2021
Orbit: 558 x 600 km, 98.1° (Epoch: 06 December)

Event Time Altitude Azimuth Distance (km) Brightness Sun altitude
Rises 04:32:26 0° 33° (NNE) 2,812 ? -16.3°
Reaches altitude 10° 04:34:41 10° 41° (NE) 1,926 ? -15.9°
Maximum altitude 04:38:32 37° 108° (ESE) 948 ? -15.2°
Drops below altitude 10° 04:42:29 10° 175° (S) 1,970 ? -14.5°
Sets 04:44:48 0° 183° (S) 2,885 ? -14.1°
